This is the latest recevied weather packets stored in our database for station/object KD8UYA. If no packets are shown the sender has not sent any weather packets the latest 10 day(s).
| Time | Temp. | Humidity | Pressure | Rain* | Wind** | Luminosity | Snow |
|---|---|---|---|---|---|---|---|
| 1777842001 | 14.44° C | 46% | 1011.4 hPa | 0 mm | - | - | - |
| 1777841159 | 14.44° C | 47% | 1011.4 hPa | 0 mm | - | - | - |
| 1777840264 | 14.44° C | 48% | 1011.4 hPa | 0 mm | - | - | - |
| 1777839358 | 15° C | 46% | 1011.7 hPa | 0 mm | - | - | - |
| 1777838458 | 15° C | 46% | 1011.8 hPa | 0 mm | - | - | - |
| 1777837553 | 14.44° C | 48% | 1012.2 hPa | 0 mm | - | - | - |
| 1777836655 | 14.44° C | 48% | 1012.5 hPa | 0 mm | - | - | - |
| 1777835751 | 15° C | 47% | 1012.8 hPa | 0 mm | - | - | - |
| 1777834855 | 13.89° C | 53% | 1012.9 hPa | 0 mm | - | - | - |
| 1777833956 | 14.44° C | 47% | 1013.2 hPa | 0 mm | - | - | - |
| 1777833054 | 13.89° C | 46% | 1013.4 hPa | 0 mm | - | - | - |
| 1777832141 | 13.89° C | 50% | 1013.5 hPa | 0 mm | - | - | - |
| 1777831240 | 13.89° C | 48% | 1013.6 hPa | 0 mm | - | - | - |
| 1777830336 | 13.33° C | 52% | 1013.7 hPa | 0 mm | - | - | - |
| 1777829434 | 13.33° C | 53% | 1013.9 hPa | 0 mm | - | - | - |
| 1777828532 | 12.78° C | 53% | 1014.2 hPa | 0 mm | - | - | - |
| 1777827631 | 12.78° C | 54% | 1014.2 hPa | 0 mm | - | - | - |
| 1777826731 | 12.78° C | 53% | 1014.4 hPa | 0 mm | - | - | - |
| 1777825824 | 12.22° C | 52% | 1014.6 hPa | 0 mm | - | - | - |
| 1777824922 | 12.22° C | 54% | 1014.8 hPa | 0 mm | - | - | - |
| 1777824021 | 11.67° C | 52% | 1015 hPa | 0 mm | - | - | - |
| 1777823116 | 11.67° C | 53% | 1015.2 hPa | 0 mm | - | - | - |
| 1777822212 | 11.11° C | 55% | 1015.2 hPa | 0 mm | - | - | - |
| 1777821311 | 10.56° C | 53% | 1015.4 hPa | 0 mm | - | - | - |
| 1777820407 | 10.56° C | 57% | 1015.3 hPa | 0 mm | - | - | - |
* Rain latest hour (hover to see other rain measurements)
** Current wind speed in m/s (hover to see current wind gust speed)